Location: Heidgraben
(53.7081°N, 9.6576°E)
Time: 07:59:37
(UTC+00:00)

Cosmos 2297 - Pass Details

Date: 05 July 2020
Orbit: 835 x 859 km, 71.0° (Epoch: 14 August)

Event Time Altitude Azimuth Distance (km) Brightness Sun altitude
Rises 22:45:10 0° 326° (NNW) 3,447 8.2 -13.1°
Reaches altitude 10° 22:47:39 10° 324° (NW) 2,505 7.2 -13.2°
Maximum altitude 22:53:21 66° 244° (WSW) 934 3.8 -13.3°
Enters shadow 22:57:30 19° 166° (SSE) 1,933 4.9 -13.4°
